{"data":{"norad_id":39358,"intl_designator":"2013-057A","name":"SHIJIAN-16 (SJ-16)","alt_names":[],"object_type":"PAYLOAD","status":"ACTIVE","operator":null,"country":"PRC","launch_date":"2013-10-25","launch_site_code":"JSC","launch_vehicle":null,"mission":null,"orbit_class":"UNKNOWN","rcs_meters":8.2723,"size_class":null,"mass_kg":null,"dimensions":null,"purposes":[],"wikipedia_slug":null,"has_3d_model":false,"image_url":null,"decayed_at":null,"tle_current":{"epoch":"2026-09-20T05:03:39.375360Z","epoch_age_seconds":58586,"freshness":"FRESH","line1":"1 39358U 13057A   26263.21087240  .00001280  00000+0  12638-3 0  9990","line2":"2 39358  74.9732 176.6853 0015776 355.4219   4.6822 14.92789509700523","mean_motion":14.92789509,"eccentricity":0.0015776,"inclination_deg":74.9732,"raan_deg":176.6853,"arg_perigee_deg":355.4219,"mean_anomaly_deg":4.6822,"bstar":0.00012638,"rev_number":70052,"period_min":96.463700429181,"perigee_km":578.25063534872,"apogee_km":600.23411074656,"semimajor_km":6967.3793730476,"source":"CELESTRAK","updated_at":"2026-09-20T09:00:13.950987Z"}}}